Spearfish, SD

8:19 PM MDT on May 27, 2017 (GMT -0600)
Black Hills-Ice

Weather History for KSPF - January, 2013

Change the Weather History Date:

Wednesday, January 16, 2013

  Actual Average (KEFC) Record (KEFC)
Temperature  
Mean Temperature 40 °F -  
Max Temperature 42 °F 37 °F 68 °F (1974)
Min Temperature 37 °F 11 °F -23 °F (1950)
Degree Days  
Heating Degree Days 26    
Moisture  
Dew Point 20 °F    
Average Humidity 47    
Maximum Humidity 60    
Minimum Humidity 39    
Precipitation  
Precipitation 0.00 in - - ()
Sea Level Pressure  
Sea Level Pressure 30.06 in    
Wind  
Wind Speed 19 mph (WNW)    
Max Wind Speed 24 mph    
Max Gust Speed 38 mph    
Visibility 10 miles    
Events      
Averages and records for this station are not official NWS values.
T = Trace of Precipitation, MM = Missing Value Source: NWS Daily Summary

Daily Weather History Graph

Daily Weather History Graph

Search for Another Location

Airport or City:

Trip Planner

Search our weather history database for the weather conditions in past years. The results will help you decide how hot, cold, wet, or windy it might be!

Date:

Astronomy

Jan. 16, 2013 Rise Set
Actual Time 8:27 AM CST 5:43 PM CST
Civil Twilight 7:55 AM CST 6:15 PM CST
Nautical Twilight 7:19 AM CST 6:51 PM CST
Astronomical Twilight 6:44 AM CST 7:26 PM CST
Moon 10:50 AM CST (1/16) 11:53 PM CST (1/16)
Length of Visible Light 10h 20m
Length of Day
9h 15m
Waxing Crescent, 28% of the Moon is Illuminated
Jan 16
Waxing Crescent
Jan 18
First Quarter
Jan 26
Full
Feb 3
Last Quarter
Feb 10
New

Hourly Weather History & Observations

Time (CST) Temp. Windchill Dew Point Humidity Pressure Visibility Wind Dir Wind Speed Gust Speed Precip Events Conditions
12:15 AM 37.4 °F 27.2 °F 24.8 °F 60% 29.94 in 10.0 mi West 19.6 mph 27.6 mph N/A   Overcast
12:35 AM 37.4 °F 27.2 °F 24.8 °F 60% 29.93 in 10.0 mi WNW 19.6 mph 31.1 mph N/A   Overcast
12:55 AM 37.4 °F 27.8 °F 24.8 °F 60% 29.93 in 10.0 mi WNW 17.3 mph 23.0 mph N/A   Scattered Clouds
1:15 AM 37.4 °F 26.9 °F 24.8 °F 60% 29.92 in 10.0 mi WNW 20.7 mph 28.8 mph N/A   Scattered Clouds
1:35 AM 37.4 °F 26.1 °F 24.8 °F 60% 29.91 in 10.0 mi WNW 24.2 mph 31.1 mph N/A   Scattered Clouds
1:55 AM 37.4 °F 26.6 °F 24.8 °F 60% 29.92 in 10.0 mi West 21.9 mph 32.2 mph N/A   Partly Cloudy
2:15 AM 37.4 °F 27.5 °F 23.0 °F 56% 29.93 in 10.0 mi West 18.4 mph 27.6 mph N/A   Clear
2:35 AM 37.4 °F 26.9 °F 21.2 °F 52% 29.94 in 10.0 mi West 20.7 mph 27.6 mph N/A   Scattered Clouds
2:55 AM 37.4 °F 26.9 °F 21.2 °F 52% 29.95 in 10.0 mi West 20.7 mph 29.9 mph N/A   Overcast
3:15 AM 37.4 °F 26.9 °F 21.2 °F 52% 29.95 in 10.0 mi West 20.7 mph 28.8 mph N/A   Overcast
3:35 AM 37.4 °F 26.9 °F 21.2 °F 52% 29.94 in 10.0 mi West 20.7 mph 33.4 mph N/A   Overcast
3:55 AM 37.4 °F 26.9 °F 19.4 °F 48% 29.94 in 10.0 mi West 20.7 mph 29.9 mph N/A   Partly Cloudy
4:15 AM 37.4 °F 26.1 °F 21.2 °F 52% 29.94 in 10.0 mi West 24.2 mph 33.4 mph N/A   Mostly Cloudy
4:35 AM 37.4 °F 26.6 °F 21.2 °F 52% 29.94 in 10.0 mi West 21.9 mph 27.6 mph N/A   Overcast
4:55 AM 39.2 °F 28.7 °F 19.4 °F 45% 29.94 in 10.0 mi West 23.0 mph 32.2 mph N/A   Overcast
5:15 AM 39.2 °F 29.0 °F 19.4 °F 45% 29.94 in 10.0 mi WNW 21.9 mph 31.1 mph N/A   Overcast
5:35 AM 39.2 °F 29.0 °F 19.4 °F 45% 29.93 in 10.0 mi West 21.9 mph 31.1 mph N/A   Overcast
5:55 AM 39.2 °F 28.7 °F 19.4 °F 45% 29.93 in 10.0 mi West 23.0 mph 32.2 mph N/A   Overcast
6:15 AM 39.2 °F 28.5 °F 19.4 °F 45% 29.93 in 10.0 mi West 24.2 mph 33.4 mph N/A   Overcast
6:35 AM 39.2 °F 29.3 °F 19.4 °F 45% 29.94 in 10.0 mi West 20.7 mph 33.4 mph N/A   Overcast
6:55 AM 39.2 °F 29.0 °F 19.4 °F 45% 29.95 in 10.0 mi West 21.9 mph 36.8 mph N/A   Overcast
7:15 AM 39.2 °F 28.5 °F 19.4 °F 45% 29.96 in 10.0 mi West 24.2 mph 33.4 mph N/A   Overcast
7:35 AM 39.2 °F 29.6 °F 19.4 °F 45% 29.96 in 10.0 mi West 19.6 mph 38.0 mph N/A   Overcast
7:55 AM 39.2 °F 29.0 °F 19.4 °F 45% 29.97 in 10.0 mi West 21.9 mph 38.0 mph N/A   Overcast
8:15 AM 39.2 °F 28.7 °F 17.6 °F 42% 29.97 in 10.0 mi West 23.0 mph 35.7 mph N/A   Overcast
8:55 AM 39.2 °F 29.6 °F 17.6 °F 42% 30.00 in 10.0 mi West 19.6 mph 31.1 mph N/A   Overcast
9:15 AM 39.2 °F 29.6 °F 17.6 °F 42% 30.01 in 10.0 mi West 19.6 mph 35.7 mph N/A   Mostly Cloudy
9:35 AM 41.0 °F 31.1 °F 17.6 °F 39% 30.02 in 10.0 mi West 23.0 mph 36.8 mph N/A   Mostly Cloudy
9:55 AM 41.0 °F 31.1 °F 17.6 °F 39% 30.04 in 10.0 mi West 23.0 mph 29.9 mph N/A   Scattered Clouds
10:15 AM 41.0 °F 31.4 °F 17.6 °F 39% 30.05 in 10.0 mi West 21.9 mph 32.2 mph N/A   Partly Cloudy
10:35 AM 39.2 °F 29.3 °F 17.6 °F 42% 30.05 in 10.0 mi West 20.7 mph 32.2 mph N/A   Partly Cloudy
10:55 AM 41.0 °F 31.1 °F 17.6 °F 39% 30.05 in 10.0 mi West 23.0 mph 32.2 mph N/A   Clear
11:15 AM 41.0 °F 31.1 °F 17.6 °F 39% 30.06 in 10.0 mi West 23.0 mph 34.5 mph N/A   Clear
11:35 AM 41.0 °F 31.9 °F 19.4 °F 42% 30.07 in 10.0 mi WNW 19.6 mph 33.4 mph N/A   Clear
11:55 AM 41.0 °F 31.4 °F 19.4 °F 42% 30.06 in 10.0 mi WNW 21.9 mph 35.7 mph N/A   Clear
12:35 PM 41.0 °F 31.6 °F 19.4 °F 42% 30.07 in 10.0 mi WNW 20.7 mph 33.4 mph N/A   Clear
12:55 PM 41.0 °F 31.4 °F 19.4 °F 42% 30.07 in 10.0 mi WNW 21.9 mph 29.9 mph N/A   Clear
1:15 PM 41.0 °F 33.5 °F 19.4 °F 42% 30.07 in 10.0 mi WNW 13.8 mph 28.8 mph N/A   Clear
1:35 PM 42.8 °F 34.0 °F 19.4 °F 39% 30.06 in 10.0 mi West 20.7 mph 26.5 mph N/A   Clear
1:55 PM 42.8 °F 34.5 °F 19.4 °F 39% 30.07 in 10.0 mi WNW 18.4 mph 25.3 mph N/A   Clear
2:15 PM 41.0 °F 32.2 °F 19.4 °F 42% 30.08 in 10.0 mi WNW 18.4 mph 29.9 mph N/A   Scattered Clouds
2:35 PM 41.0 °F 32.5 °F 19.4 °F 42% 30.09 in 10.0 mi WNW 17.3 mph 25.3 mph N/A   Overcast
2:55 PM 41.0 °F 32.8 °F 19.4 °F 42% 30.10 in 10.0 mi WNW 16.1 mph 24.2 mph N/A   Overcast
3:15 PM 41.0 °F 33.9 °F 21.2 °F 45% 30.10 in 10.0 mi WNW 12.7 mph - N/A   Overcast
3:35 PM 41.0 °F 34.3 °F 21.2 °F 45% 30.11 in 10.0 mi WNW 11.5 mph - N/A   Overcast
3:55 PM 41.0 °F 33.5 °F 19.4 °F 42% 30.12 in 10.0 mi WNW 13.8 mph 19.6 mph N/A   Overcast
4:15 PM 41.0 °F 33.9 °F 19.4 °F 42% 30.12 in 10.0 mi West 12.7 mph 17.3 mph N/A   Overcast
4:55 PM 39.2 °F 30.8 °F 21.2 °F 49% 30.14 in 10.0 mi WNW 15.0 mph - N/A   Overcast
5:15 PM 39.2 °F 31.2 °F 21.2 °F 49% 30.15 in 10.0 mi WNW 13.8 mph 18.4 mph N/A   Overcast
5:35 PM 39.2 °F 32.0 °F 21.2 °F 49% 30.16 in 10.0 mi WNW 11.5 mph 20.7 mph N/A   Overcast
5:55 PM 39.2 °F 31.6 °F 21.2 °F 49% 30.16 in 10.0 mi WNW 12.7 mph 17.3 mph N/A   Overcast
6:15 PM 39.2 °F 30.8 °F 21.2 °F 49% 30.17 in 10.0 mi WNW 15.0 mph 21.9 mph N/A   Overcast
6:35 PM 39.2 °F 31.6 °F 21.2 °F 49% 30.17 in 10.0 mi WNW 12.7 mph 19.6 mph N/A   Overcast
6:55 PM 37.4 °F 30.3 °F 19.4 °F 48% 30.18 in 10.0 mi West 10.4 mph 18.4 mph N/A   Scattered Clouds
7:15 PM 37.4 °F 29.8 °F 19.4 °F 48% 30.18 in 10.0 mi West 11.5 mph 16.1 mph N/A   Clear
7:55 PM 37.4 °F 29.8 °F 19.4 °F 48% 30.19 in 10.0 mi West 11.5 mph 17.3 mph N/A   Clear
8:15 PM 37.4 °F 29.8 °F 19.4 °F 48% 30.19 in 10.0 mi West 11.5 mph 17.3 mph N/A   Clear
8:35 PM 37.4 °F 29.3 °F 19.4 °F 48% 30.20 in 10.0 mi West 12.7 mph 19.6 mph N/A   Clear
8:55 PM 37.4 °F 29.8 °F 19.4 °F 48% 30.20 in 10.0 mi West 11.5 mph 18.4 mph N/A   Clear
9:15 PM 37.4 °F 28.9 °F 19.4 °F 48% 30.21 in 10.0 mi West 13.8 mph 18.4 mph N/A   Clear
9:35 PM 37.4 °F 28.9 °F 19.4 °F 48% 30.22 in 10.0 mi West 13.8 mph 18.4 mph N/A   Clear
9:55 PM 37.4 °F 29.8 °F 19.4 °F 48% 30.22 in 10.0 mi West 11.5 mph - N/A   Clear
10:15 PM 37.4 °F 29.8 °F 19.4 °F 48% 30.22 in 10.0 mi West 11.5 mph - N/A   Clear
10:35 PM 37.4 °F 27.8 °F 19.4 °F 48% 30.22 in 10.0 mi West 17.3 mph 21.9 mph N/A   Clear
10:55 PM 37.4 °F 29.3 °F 19.4 °F 48% 30.22 in 10.0 mi West 12.7 mph 18.4 mph N/A   Clear
11:15 PM 37.4 °F 29.3 °F 19.4 °F 48% 30.23 in 10.0 mi West 12.7 mph 17.3 mph N/A   Clear
11:35 PM 37.4 °F 29.3 °F 19.4 °F 48% 30.23 in 10.0 mi West 12.7 mph - N/A   Clear
11:55 PM 37.4 °F 29.3 °F 19.4 °F 48% 30.23 in 10.0 mi West 12.7 mph 18.4 mph N/A   Clear